Flag for Iran Weather past 2 weeks in Bandar-Abbas, Iran

Now
86 °F

Haze.


Feels Like: 95 °F
Forecast: 79 / 95 °F
Wind: 12 mph from Southwest

Location: Bandarabbass

Current Time: Apr 26, 2015 at 11:24:52 AM

Latest Report: Apr 26, 2015 at 11:00 AM


Visibility: 2 mi

Pressure: 29.80 "Hg

Humidity: 70%

Dew point: 75 °F

Location of Bandar-AbbasLocation

Historic Weather in Bandar-Abbas — Graph

°F

Bandar-Abbas temperature yesterday

Maximum temperature yesterday: 99 °F (at 4:30 PM)
Minimum temperature yesterday: 77 °F (at 6:30 AM)
Average temperature yesterday: 88 °F

Past Weeks' High & Low Weather Summary

 TemperatureHumidityPressure
High99 °F (Apr 12, 11:30 AM)94% (Apr 15, 3:30 AM)29.98 "Hg (Apr 15, 3:30 AM)
Low72 °F (Apr 13, 7:30 AM)19% (Apr 12, 11:30 AM)29.62 "Hg (Apr 18, 6:30 PM)
Average84 °F63%29.79 "Hg
* Reported Apr 11 10:30 AM — Apr 26 10:30 AM, Bandar-Abbas, Weather by CustomWeather, © 2015

Note: Actual official high and low records may vary slightly from our data, if they occured in-between our weather recording intervals... More about our weather records

Advertising

Bandar-Abbas weather history for previous 24 hours

 ConditionsComfort  
Time TempWeatherWind HumidityBarometerVisibility
10:30 AM
Sun, Apr 26
84 °FScattered clouds.9 mph74%29.83 "Hg2 mi
10:00 AM84 °FScattered clouds.9 mph74%29.83 "Hg2 mi
9:30 AM84 °FScattered clouds.9 mph74%29.80 "Hg2 mi
8:55 AM84 °FScattered clouds.5 mph74%29.80 "Hg2 mi
8:30 AM82 °FPartly sunny.5 mph79%29.80 "Hg2 mi
8:00 AM81 °FFog.No wind84%29.80 "Hg2 mi
7:30 AM79 °FFog.5 mph84%29.77 "Hg1 mi
7:00 AM79 °FFog.5 mph84%29.77 "Hg1 mi
6:30 AM79 °FFog.5 mph84%29.77 "Hg1 mi
5:30 AM77 °FFog.5 mph89%29.74 "Hg1 mi
4:30 AM79 °FFog.5 mph84%29.71 "Hg1 mi
3:30 AM79 °FFog.5 mph84%29.71 "Hg1 mi
2:30 AM81 °FFog.5 mph84%29.71 "Hg1 mi
1:30 AM81 °FFog.9 mph84%29.71 "Hg1 mi
1:00 AM81 °FHaze.9 mph84%29.71 "Hg1 mi
12:30 AM81 °FHaze.7 mph79%29.71 "Hg1 mi
12:00 AM82 °FHaze.9 mph74%29.71 "Hg1 mi
11:30 PM
Sat, Apr 25
82 °FHaze.9 mph74%29.71 "Hg1 mi
11:00 PM82 °FHaze.7 mph79%29.71 "Hg1 mi
10:30 PM84 °FHaze.12 mph70%29.71 "Hg1 mi
10:00 PM84 °FHaze.12 mph74%29.68 "Hg1 mi
9:30 PM84 °FHaze.9 mph70%29.68 "Hg1 mi
9:00 PM84 °FHaze.9 mph70%29.68 "Hg1 mi
8:30 PM86 °FHaze.12 mph66%29.65 "Hg1 mi
8:00 PM86 °FHaze.14 mph66%29.65 "Hg1 mi
7:30 PM91 °FHaze.14 mph44%29.65 "Hg1 mi
7:00 PM93 °FHaze.9 mph39%29.65 "Hg1 mi
6:30 PM95 °FHaze.14 mph39%29.65 "Hg1 mi
6:00 PM97 °FHaze.12 mph37%29.62 "Hg1 mi
5:30 PM95 °FHaze.14 mph44%29.62 "Hg2 mi
5:00 PM95 °FSandstorm.16 mph50%29.62 "Hg2 mi
4:30 PM99 °FSandstorm.16 mph39%29.62 "Hg2 mi
4:00 PM97 °FSandstorm.16 mph44%29.65 "Hg2 mi
3:30 PM95 °FSandstorm.16 mph44%29.68 "Hg2 mi
3:00 PM95 °FSandstorm.16 mph44%29.68 "Hg2 mi
2:30 PM97 °FSandstorm.16 mph39%29.68 "Hg2 mi
2:00 PM97 °FSandstorm.16 mph34%29.71 "Hg2 mi
1:30 PM95 °FSandstorm.16 mph34%29.71 "Hg2 mi
1:00 PM95 °FHaze.12 mph36%29.74 "Hg2 mi
12:30 PM95 °FHaze.14 mph36%29.74 "Hg2 mi
12:00 PM93 °FHaze.12 mph44%29.74 "Hg2 mi
11:30 AM93 °FHaze.9 mph47%29.74 "Hg2 mi
11:00 AM93 °FHaze.12 mph49%29.77 "Hg2 mi
Weather by CustomWeather, © 2015

See weather overviewHow to use our weather pages